Tracking 19709 objects as of 18-Jun-2019
HD Live streaming from Space Station
objects crossing your sky now

COSMOS 1823 DEB

Track COSMOS 1823 DEB now!
10-day predictions


NORAD ID: 18800
Int'l Code: 1987-020AL
Perigee: 1,477.6 km
Apogee: 1,560.0 km
Inclination: 73.6 °
Period: 116.2 minutes
Semi major axis: 7889 km
RCS: 0.043 m2 (small)
Launch date: February 20, 1987
Source: Commonwealth of Independent States (former USSR) (CIS)
Launch site: PLESETSK MISSILE AND SPACE COMPLEX (PKMTR)

Note: This is SATELLITE DEBRIS
aabbcc
Your satellite tracking list
Your tracking list is empty




NASA's NSSDC Master Catalog

Two Line Element Set (TLE):
1 18800U 87020AL  19169.37817906 -.00000134  00000-0 -88339-3 0  9995
2 18800  73.5921 302.2174 0052275  48.7884 342.0723 12.38808169424361
Source of the keplerian elements: AFSPC